ASL157 EPKK-LYBE

Flight info

Callsign ASL157
Flight time 1h 12m
Altitude 23000
Route REGTO T195 RAZEC N133 KEKED/N0442F380 DCT KOVEK DCT PARAK/N0370F190 M173 TISAK
Aircraft A319/M-SDE3FGHIRWY/LB1

Departure

Time 2026-05-06 16:37
Airport Kraków John Paul II International Airport (EPKK)

Arrival

Time 2026-05-06 17:50
Airport Belgrade Nikola Tesla Airport (LYBE)
Time Latitude Longitude Altitude Speed Heading
2026-05-06 16:18 50.07323 19.80108 789 ft 0 kts 168°
2026-05-06 16:29 50.07343 19.80101 789 ft 4 kts 168°
2026-05-06 16:29 50.07369 19.80093 789 ft 4 kts 168°
2026-05-06 16:29 50.07390 19.80085 789 ft 4 kts 152°
2026-05-06 16:30 50.07403 19.80061 789 ft 4 kts 83°
2026-05-06 16:30 50.07400 19.80036 789 ft 3 kts 77°
2026-05-06 16:30 50.07399 19.80030 789 ft 0 kts 77°
2026-05-06 16:33 50.07400 19.80034 789 ft 3 kts 77°
2026-05-06 16:33 50.07412 19.80112 789 ft 9 kts 77°
2026-05-06 16:33 50.07428 19.80219 789 ft 11 kts 77°
2026-05-06 16:34 50.07538 19.80410 789 ft 15 kts 15°
2026-05-06 16:34 50.07641 19.80405 789 ft 15 kts 345°
2026-05-06 16:34 50.07749 19.80367 789 ft 16 kts 348°
2026-05-06 16:34 50.07847 19.80335 789 ft 0 kts 347°
2026-05-06 16:35 50.07863 19.80329 789 ft 10 kts 347°
2026-05-06 16:35 50.07948 19.80299 788 ft 15 kts 347°
2026-05-06 16:36 50.08012 19.80187 788 ft 16 kts 259°
2026-05-06 16:36 50.08002 19.80120 788 ft 0 kts 257°
2026-05-06 16:36 50.08001 19.80107 789 ft 10 kts 257°
2026-05-06 16:37 50.07943 19.79694 789 ft 69 kts 258°
2026-05-06 16:37 50.07798 19.78652 790 ft 126 kts 258°
2026-05-06 16:37 50.07578 19.77077 951 ft 158 kts 256°
2026-05-06 16:37 50.07312 19.75465 1673 ft 151 kts 254°
2026-05-06 16:38 50.07076 19.73883 2294 ft 154 kts 255°
2026-05-06 16:38 50.06839 19.72139 2647 ft 176 kts 256°
2026-05-06 16:38 50.06575 19.70178 2997 ft 197 kts 256°
2026-05-06 16:38 50.06275 19.67972 3368 ft 219 kts 256°
2026-05-06 16:39 50.05752 19.65679 4018 ft 230 kts 233°
2026-05-06 16:39 50.04438 19.64288 4897 ft 237 kts 195°
2026-05-06 16:39 50.02764 19.64240 5765 ft 249 kts 175°
2026-05-06 16:39 50.01011 19.64780 6565 ft 262 kts 169°
2026-05-06 16:40 49.99224 19.65527 7526 ft 267 kts 167°
2026-05-06 16:40 49.97439 19.66296 8478 ft 271 kts 167°
2026-05-06 16:40 49.95606 19.67046 9488 ft 274 kts 168°
2026-05-06 16:40 49.93736 19.67765 10303 ft 282 kts 169°
2026-05-06 16:41 49.91738 19.68484 10646 ft 306 kts 169°
2026-05-06 16:41 49.89629 19.69403 11139 ft 323 kts 160°
2026-05-06 16:41 49.87641 19.71138 11857 ft 334 kts 147°
2026-05-06 16:41 49.85951 19.73696 12597 ft 346 kts 131°
2026-05-06 16:42 49.84494 19.76703 13360 ft 351 kts 130°
2026-05-06 16:42 49.83025 19.79755 14081 ft 355 kts 130°
2026-05-06 16:42 49.81537 19.82834 14784 ft 358 kts 130°
2026-05-06 16:42 49.80032 19.85934 15462 ft 361 kts 130°
2026-05-06 16:43 49.78535 19.89018 16193 ft 364 kts 130°
2026-05-06 16:43 49.77002 19.92169 16857 ft 368 kts 131°
2026-05-06 16:43 49.75456 19.95345 17579 ft 371 kts 131°
2026-05-06 16:43 49.73873 19.98590 18277 ft 374 kts 131°
2026-05-06 16:44 49.72319 20.01767 18877 ft 377 kts 131°
2026-05-06 16:44 49.70730 20.05014 19509 ft 380 kts 131°
2026-05-06 16:44 49.69128 20.08290 20143 ft 383 kts 131°
2026-05-06 16:44 49.67514 20.11591 20768 ft 386 kts 131°
2026-05-06 16:45 49.65888 20.14912 21377 ft 389 kts 131°
2026-05-06 16:45 49.64245 20.18264 21985 ft 392 kts 131°
2026-05-06 16:45 49.62591 20.21633 22527 ft 397 kts 130°
2026-05-06 16:45 49.60915 20.25040 22821 ft 400 kts 130°
2026-05-06 16:46 49.59255 20.28413 22868 ft 389 kts 130°
2026-05-06 16:46 49.57634 20.31707 22874 ft 384 kts 130°
2026-05-06 16:46 49.56023 20.34970 22883 ft 382 kts 130°
2026-05-06 16:46 49.54415 20.38219 22883 ft 382 kts 130°
2026-05-06 16:47 49.52803 20.41472 22884 ft 382 kts 131°
2026-05-06 16:47 49.51193 20.44719 22882 ft 381 kts 131°
2026-05-06 16:47 49.49577 20.47970 22882 ft 382 kts 131°
2026-05-06 16:47 49.47965 20.51213 22887 ft 382 kts 131°
2026-05-06 16:48 49.46351 20.54459 22869 ft 382 kts 131°
2026-05-06 16:48 49.44733 20.57705 22876 ft 383 kts 131°
2026-05-06 16:48 49.43105 20.60961 22876 ft 384 kts 131°
2026-05-06 16:48 49.41480 20.64210 22872 ft 384 kts 130°
2026-05-06 16:49 49.39778 20.67341 22869 ft 381 kts 139°
2026-05-06 16:49 49.37915 20.70155 22872 ft 380 kts 139°
2026-05-06 16:49 49.36023 20.72992 22874 ft 380 kts 139°
2026-05-06 16:49 49.34127 20.75832 22872 ft 380 kts 139°
2026-05-06 16:50 49.32230 20.78665 22873 ft 380 kts 139°
2026-05-06 16:50 49.30335 20.81490 22877 ft 380 kts 140°
2026-05-06 16:50 49.28441 20.84322 22878 ft 381 kts 139°
2026-05-06 16:50 49.27189 20.86195 22878 ft 380 kts 139°
2026-05-06 16:51 49.24656 20.89978 22875 ft 380 kts 139°
2026-05-06 16:51 49.22764 20.92797 22885 ft 380 kts 139°
2026-05-06 16:51 49.20870 20.95614 22889 ft 379 kts 140°
2026-05-06 16:51 49.18976 20.98425 22885 ft 379 kts 139°
2026-05-06 16:52 49.17082 21.01228 22887 ft 379 kts 139°
2026-05-06 16:52 49.15188 21.04028 22886 ft 379 kts 140°
2026-05-06 16:52 49.13235 21.06720 22877 ft 376 kts 147°
2026-05-06 16:52 49.11030 21.08813 22879 ft 372 kts 158°
2026-05-06 16:53 49.08665 21.10184 22879 ft 367 kts 168°
2026-05-06 16:53 49.06186 21.11080 22878 ft 366 kts 169°
2026-05-06 16:53 49.03701 21.11973 22878 ft 367 kts 169°
2026-05-06 16:53 49.01220 21.12875 22883 ft 367 kts 170°
2026-05-06 16:54 48.98737 21.13784 22868 ft 367 kts 170°
2026-05-06 16:54 48.96256 21.14692 22865 ft 367 kts 169°
2026-05-06 16:54 48.93771 21.15601 22872 ft 367 kts 169°
2026-05-06 16:54 48.91286 21.16508 22864 ft 367 kts 170°
2026-05-06 16:55 48.88800 21.17413 22859 ft 367 kts 169°
2026-05-06 16:55 48.86313 21.18315 22866 ft 368 kts 169°
2026-05-06 16:55 48.83823 21.19218 22866 ft 368 kts 169°
2026-05-06 16:55 48.81332 21.20121 22870 ft 368 kts 169°
2026-05-06 16:56 48.78875 21.21008 22873 ft 368 kts 169°
2026-05-06 16:56 48.76385 21.21905 22872 ft 368 kts 169°
2026-05-06 16:56 48.73858 21.22818 22876 ft 368 kts 169°
2026-05-06 16:56 48.71401 21.23705 22879 ft 368 kts 169°
2026-05-06 16:57 48.68908 21.24601 22890 ft 368 kts 169°
2026-05-06 16:57 48.66374 21.25447 22888 ft 368 kts 171°
2026-05-06 16:57 48.63895 21.26155 22876 ft 368 kts 172°
2026-05-06 16:57 48.61371 21.26812 22882 ft 368 kts 173°
2026-05-06 16:58 48.58845 21.27446 22871 ft 368 kts 173°
2026-05-06 16:58 48.56312 21.28003 22861 ft 367 kts 179°
2026-05-06 16:58 48.53779 21.27858 22871 ft 364 kts 191°
2026-05-06 16:58 48.51336 21.26915 22865 ft 361 kts 202°
2026-05-06 16:59 48.49094 21.25230 22867 ft 360 kts 214°
2026-05-06 16:59 48.47099 21.22972 22868 ft 359 kts 219°
2026-05-06 16:59 48.45135 21.20643 22868 ft 359 kts 219°
2026-05-06 16:59 48.43167 21.18316 22862 ft 360 kts 219°
2026-05-06 17:00 48.41196 21.15990 22864 ft 360 kts 219°
2026-05-06 17:00 48.39224 21.13666 22868 ft 360 kts 219°
2026-05-06 17:00 48.37253 21.11344 22871 ft 360 kts 219°
2026-05-06 17:00 48.35284 21.09026 22873 ft 360 kts 219°
2026-05-06 17:01 48.33312 21.06707 22882 ft 360 kts 218°
2026-05-06 17:01 48.31337 21.04384 22881 ft 360 kts 218°
2026-05-06 17:01 48.29365 21.02063 22880 ft 360 kts 218°
2026-05-06 17:01 48.27418 20.99776 22879 ft 360 kts 218°
2026-05-06 17:02 48.25443 20.97461 22878 ft 360 kts 218°
2026-05-06 17:02 48.23468 20.95146 22873 ft 360 kts 219°
2026-05-06 17:02 48.21491 20.92835 22874 ft 360 kts 218°
2026-05-06 17:02 48.19513 20.90533 22873 ft 360 kts 218°
2026-05-06 17:03 48.17533 20.88233 22874 ft 360 kts 218°
2026-05-06 17:03 48.15551 20.85929 22873 ft 360 kts 218°
2026-05-06 17:03 48.13571 20.83625 22873 ft 360 kts 218°
2026-05-06 17:03 48.11593 20.81320 22873 ft 360 kts 218°
2026-05-06 17:04 48.09611 20.79014 22874 ft 360 kts 218°
2026-05-06 17:04 48.08301 20.77492 22874 ft 360 kts 218°
2026-05-06 17:04 48.06318 20.75191 22874 ft 361 kts 218°
2026-05-06 17:04 48.04334 20.72893 22874 ft 360 kts 218°
2026-05-06 17:05 48.01706 20.69856 22876 ft 360 kts 218°
2026-05-06 17:05 47.99724 20.67564 22875 ft 360 kts 218°
2026-05-06 17:05 47.97738 20.65271 22873 ft 361 kts 218°
2026-05-06 17:05 47.96398 20.63723 22872 ft 360 kts 218°
2026-05-06 17:06 47.94416 20.61432 22878 ft 360 kts 218°
2026-05-06 17:06 47.92431 20.59142 22878 ft 360 kts 218°
2026-05-06 17:06 47.90445 20.56859 22880 ft 361 kts 218°
2026-05-06 17:06 47.88459 20.54578 22886 ft 361 kts 218°
2026-05-06 17:07 47.86452 20.52338 22879 ft 361 kts 214°
2026-05-06 17:07 47.84227 20.50597 22874 ft 363 kts 203°
2026-05-06 17:07 47.81790 20.49540 22873 ft 365 kts 192°
2026-05-06 17:07 47.79282 20.48912 22872 ft 366 kts 191°
2026-05-06 17:08 47.76803 20.48297 22870 ft 366 kts 191°
2026-05-06 17:08 47.74257 20.47664 22870 ft 366 kts 191°
2026-05-06 17:08 47.71771 20.47047 22871 ft 366 kts 191°
2026-05-06 17:08 47.69257 20.46420 22871 ft 367 kts 191°
2026-05-06 17:09 47.66742 20.45792 22859 ft 367 kts 192°
2026-05-06 17:09 47.64223 20.45164 22858 ft 367 kts 192°
2026-05-06 17:09 47.61705 20.44537 22859 ft 367 kts 192°
2026-05-06 17:09 47.59182 20.43908 22861 ft 368 kts 192°
2026-05-06 17:10 47.56658 20.43279 22865 ft 368 kts 192°
2026-05-06 17:10 47.54133 20.42652 22866 ft 368 kts 192°
2026-05-06 17:10 47.51607 20.42026 22868 ft 368 kts 192°
2026-05-06 17:10 47.49080 20.41404 22867 ft 368 kts 192°
2026-05-06 17:11 47.46535 20.40777 22868 ft 368 kts 192°
2026-05-06 17:11 47.44003 20.40150 22861 ft 368 kts 192°
2026-05-06 17:11 47.41476 20.39526 22863 ft 369 kts 192°
2026-05-06 17:11 47.38943 20.38904 22866 ft 369 kts 192°
2026-05-06 17:12 47.36442 20.38294 22868 ft 369 kts 191°
2026-05-06 17:12 47.33905 20.37675 22870 ft 369 kts 192°
2026-05-06 17:12 47.31367 20.37052 22873 ft 370 kts 192°
2026-05-06 17:12 47.28832 20.36428 22875 ft 370 kts 192°
2026-05-06 17:13 47.26295 20.35802 22873 ft 370 kts 192°
2026-05-06 17:13 47.23754 20.35175 22875 ft 370 kts 192°
2026-05-06 17:13 47.21218 20.34550 22877 ft 370 kts 192°
2026-05-06 17:13 47.18676 20.33928 22879 ft 370 kts 192°
2026-05-06 17:14 47.16139 20.33308 22880 ft 370 kts 192°
2026-05-06 17:14 47.13602 20.32690 22881 ft 370 kts 192°
2026-05-06 17:14 47.11062 20.32072 22887 ft 370 kts 192°
2026-05-06 17:14 47.08525 20.31454 22880 ft 370 kts 192°
2026-05-06 17:15 47.05984 20.30838 22883 ft 370 kts 192°
2026-05-06 17:15 47.03445 20.30225 22883 ft 370 kts 192°
2026-05-06 17:15 47.00909 20.29610 22883 ft 370 kts 192°
2026-05-06 17:15 46.98370 20.28989 22884 ft 370 kts 192°
2026-05-06 17:16 46.95832 20.28369 22884 ft 370 kts 192°
2026-05-06 17:16 46.93297 20.27750 22885 ft 370 kts 192°
2026-05-06 17:16 46.90788 20.27144 22888 ft 369 kts 191°
2026-05-06 17:16 46.88252 20.26537 22888 ft 369 kts 191°
2026-05-06 17:17 46.85715 20.25931 22888 ft 369 kts 191°
2026-05-06 17:17 46.83180 20.25323 22890 ft 369 kts 192°
2026-05-06 17:17 46.80644 20.24713 22890 ft 369 kts 192°
2026-05-06 17:17 46.78108 20.24103 22891 ft 369 kts 192°
2026-05-06 17:18 46.75574 20.23494 22885 ft 369 kts 192°
2026-05-06 17:18 46.73036 20.22886 22891 ft 369 kts 192°
2026-05-06 17:18 46.70493 20.22276 22892 ft 369 kts 192°
2026-05-06 17:18 46.67957 20.21667 22893 ft 369 kts 192°
2026-05-06 17:19 46.65420 20.21060 22899 ft 369 kts 192°
2026-05-06 17:19 46.62877 20.20451 22899 ft 369 kts 192°
2026-05-06 17:19 46.60344 20.19843 22893 ft 369 kts 192°
2026-05-06 17:19 46.57839 20.19241 22897 ft 369 kts 192°
2026-05-06 17:20 46.55307 20.18634 22894 ft 369 kts 192°
2026-05-06 17:20 46.52768 20.18025 22895 ft 369 kts 191°
2026-05-06 17:20 46.50228 20.17420 22898 ft 369 kts 191°
2026-05-06 17:20 46.47697 20.16817 22898 ft 369 kts 191°
2026-05-06 17:21 46.45160 20.16212 22899 ft 369 kts 191°
2026-05-06 17:21 46.42622 20.15607 22899 ft 369 kts 191°
2026-05-06 17:21 46.40092 20.15004 22896 ft 369 kts 191°
2026-05-06 17:21 46.37555 20.14402 22897 ft 369 kts 191°
2026-05-06 17:22 46.35051 20.13812 22898 ft 369 kts 191°
2026-05-06 17:22 46.32518 20.13216 22896 ft 369 kts 191°
2026-05-06 17:22 46.29987 20.12619 22897 ft 369 kts 191°
2026-05-06 17:22 46.27455 20.12022 22897 ft 369 kts 191°
2026-05-06 17:23 46.24923 20.11425 22903 ft 369 kts 191°
2026-05-06 17:23 46.22385 20.10828 22903 ft 369 kts 191°
2026-05-06 17:23 46.19852 20.10231 22897 ft 369 kts 192°
2026-05-06 17:23 46.17317 20.09685 22897 ft 369 kts 187°
2026-05-06 17:24 46.14741 20.09704 22905 ft 372 kts 176°
2026-05-06 17:24 46.12169 20.10174 22903 ft 373 kts 175°
2026-05-06 17:24 46.09597 20.10648 22903 ft 373 kts 175°
2026-05-06 17:24 46.07025 20.11117 22905 ft 373 kts 175°
2026-05-06 17:25 46.04449 20.11584 22900 ft 373 kts 175°
2026-05-06 17:25 46.01875 20.12050 22900 ft 372 kts 175°
2026-05-06 17:25 45.99303 20.12516 22901 ft 372 kts 175°
2026-05-06 17:25 45.96735 20.12980 22902 ft 372 kts 175°
2026-05-06 17:26 45.94162 20.13443 22913 ft 372 kts 175°
2026-05-06 17:26 45.91595 20.13903 22900 ft 372 kts 175°
2026-05-06 17:26 45.89027 20.14366 22902 ft 372 kts 175°
2026-05-06 17:26 45.86445 20.14830 22909 ft 379 kts 175°
2026-05-06 17:27 45.83793 20.15302 22915 ft 388 kts 175°
2026-05-06 17:27 45.81108 20.15782 22893 ft 389 kts 175°
2026-05-06 17:27 45.78460 20.16261 22329 ft 389 kts 175°
2026-05-06 17:27 45.75778 20.16745 21779 ft 387 kts 175°
2026-05-06 17:28 45.73112 20.17224 21236 ft 384 kts 175°
2026-05-06 17:28 45.70471 20.17698 20677 ft 380 kts 175°
2026-05-06 17:28 45.67872 20.18161 19832 ft 374 kts 175°
2026-05-06 17:28 45.65298 20.18618 18962 ft 370 kts 175°
2026-05-06 17:29 45.62761 20.19071 18278 ft 362 kts 175°
2026-05-06 17:29 45.60305 20.19513 17790 ft 352 kts 175°
2026-05-06 17:29 45.57887 20.19946 17329 ft 347 kts 175°
2026-05-06 17:29 45.55501 20.20373 16868 ft 342 kts 175°
2026-05-06 17:30 45.53153 20.20793 16424 ft 338 kts 175°
2026-05-06 17:30 45.50831 20.21208 15984 ft 334 kts 175°
2026-05-06 17:30 45.48533 20.21615 15548 ft 330 kts 175°
2026-05-06 17:30 45.46290 20.22011 15117 ft 327 kts 175°
2026-05-06 17:31 45.44039 20.22406 14675 ft 325 kts 175°
2026-05-06 17:31 45.41792 20.22524 14231 ft 321 kts 186°
2026-05-06 17:31 45.39600 20.22024 13798 ft 318 kts 193°
2026-05-06 17:31 45.37430 20.21427 13329 ft 316 kts 193°
2026-05-06 17:32 45.35283 20.20841 12893 ft 313 kts 192°
2026-05-06 17:32 45.33155 20.20259 12472 ft 309 kts 193°
2026-05-06 17:32 45.31050 20.19686 12053 ft 307 kts 193°
2026-05-06 17:32 45.28984 20.19127 11641 ft 304 kts 193°
2026-05-06 17:33 45.26910 20.18568 11224 ft 302 kts 193°
2026-05-06 17:33 45.24853 20.18013 10837 ft 299 kts 193°
2026-05-06 17:33 45.22832 20.17466 10498 ft 295 kts 193°
2026-05-06 17:33 45.20833 20.16925 10163 ft 291 kts 193°
2026-05-06 17:34 45.18872 20.16395 9925 ft 284 kts 193°
2026-05-06 17:34 45.16954 20.15875 9756 ft 278 kts 193°
2026-05-06 17:34 45.15087 20.15369 9618 ft 268 kts 193°
2026-05-06 17:34 45.13297 20.14814 9462 ft 259 kts 199°
2026-05-06 17:35 45.11675 20.13775 9179 ft 254 kts 212°
2026-05-06 17:35 45.10176 20.12455 8859 ft 252 kts 213°
2026-05-06 17:35 45.08711 20.11166 8369 ft 250 kts 213°
2026-05-06 17:36 45.06053 20.08133 7385 ft 248 kts 241°
2026-05-06 17:36 45.05597 20.05795 7085 ft 249 kts 268°
2026-05-06 17:36 45.06036 20.03472 6868 ft 246 kts 294°
2026-05-06 17:36 45.06898 20.01368 6718 ft 249 kts 298°
2026-05-06 17:37 45.07792 19.99308 6576 ft 246 kts 299°
2026-05-06 17:37 45.08702 19.97248 6478 ft 245 kts 299°
2026-05-06 17:37 45.09613 19.95192 6387 ft 247 kts 299°
2026-05-06 17:37 45.10516 19.93140 6262 ft 246 kts 299°
2026-05-06 17:38 45.11418 19.91083 6145 ft 245 kts 298°
2026-05-06 17:38 45.12321 19.89014 6062 ft 246 kts 299°
2026-05-06 17:38 45.13204 19.86967 5905 ft 244 kts 296°
2026-05-06 17:38 45.13625 19.84690 5798 ft 236 kts 267°
2026-05-06 17:39 45.13188 19.82468 5713 ft 238 kts 239°
2026-05-06 17:39 45.12060 19.80822 5562 ft 235 kts 213°
2026-05-06 17:39 45.10646 19.79628 5492 ft 235 kts 212°
2026-05-06 17:39 45.09249 19.78430 5352 ft 237 kts 212°
2026-05-06 17:40 45.07811 19.77379 5242 ft 236 kts 196°
2026-05-06 17:40 45.06162 19.77413 5166 ft 242 kts 165°
2026-05-06 17:40 45.04782 19.78742 5013 ft 248 kts 130°
2026-05-06 17:40 45.04010 19.80935 4929 ft 249 kts 115°
2026-05-06 17:41 45.03186 19.83093 4849 ft 249 kts 124°
2026-05-06 17:41 45.02244 19.85125 4729 ft 249 kts 127°
2026-05-06 17:41 45.01275 19.87135 4603 ft 245 kts 126°
2026-05-06 17:41 45.00318 19.89143 4529 ft 246 kts 126°
2026-05-06 17:42 44.99382 19.91154 4428 ft 246 kts 125°
2026-05-06 17:42 44.98464 19.93165 4269 ft 239 kts 124°
2026-05-06 17:42 44.97599 19.95091 4142 ft 226 kts 124°
2026-05-06 17:42 44.96788 19.96915 4084 ft 215 kts 124°
2026-05-06 17:43 44.96003 19.98687 4059 ft 207 kts 124°
2026-05-06 17:43 44.95283 20.00366 3929 ft 194 kts 123°
2026-05-06 17:43 44.94596 20.01973 3693 ft 189 kts 123°
2026-05-06 17:43 44.93910 20.03547 3614 ft 188 kts 123°
2026-05-06 17:44 44.93224 20.05113 3532 ft 187 kts 123°
2026-05-06 17:44 44.92577 20.06591 3476 ft 161 kts 123°
2026-05-06 17:44 44.92047 20.07799 3391 ft 137 kts 123°
2026-05-06 17:44 44.91556 20.08915 3322 ft 131 kts 124°
2026-05-06 17:45 44.91083 20.09989 3271 ft 128 kts 124°
2026-05-06 17:45 44.90614 20.11053 3169 ft 127 kts 123°
2026-05-06 17:45 44.90149 20.12110 3033 ft 126 kts 123°
2026-05-06 17:45 44.89688 20.13158 2884 ft 125 kts 123°
2026-05-06 17:46 44.89230 20.14196 2729 ft 124 kts 123°
2026-05-06 17:46 44.88776 20.15228 2562 ft 123 kts 123°
2026-05-06 17:46 44.88323 20.16254 2406 ft 123 kts 123°
2026-05-06 17:46 44.87869 20.17284 2249 ft 123 kts 122°
2026-05-06 17:47 44.87419 20.18304 2087 ft 122 kts 122°
2026-05-06 17:47 44.86970 20.19323 1922 ft 122 kts 122°
2026-05-06 17:47 44.86522 20.20337 1762 ft 122 kts 123°
2026-05-06 17:47 44.86074 20.21353 1606 ft 122 kts 123°
2026-05-06 17:48 44.85628 20.22363 1443 ft 121 kts 122°
2026-05-06 17:48 44.85182 20.23370 1286 ft 121 kts 122°
2026-05-06 17:48 44.84735 20.24384 1126 ft 122 kts 122°
2026-05-06 17:48 44.84283 20.25404 966 ft 123 kts 122°
2026-05-06 17:49 44.83829 20.26434 812 ft 124 kts 121°
2026-05-06 17:49 44.83381 20.27469 654 ft 123 kts 122°
2026-05-06 17:49 44.82933 20.28475 486 ft 122 kts 123°
2026-05-06 17:49 44.82475 20.29500 325 ft 119 kts 122°
2026-05-06 17:50 44.82099 20.30339 305 ft 79 kts 122°
2026-05-06 17:50 44.81944 20.30683 307 ft 46 kts 122°
2026-05-06 17:50 44.81745 20.31126 306 ft 31 kts 121°
2026-05-06 17:50 44.81568 20.31338 307 ft 29 kts 151°
2026-05-06 17:51 44.81455 20.31346 305 ft 7 kts 257°
2026-05-06 17:51 44.81494 20.31250 304 ft 18 kts 301°
2026-05-06 17:51 44.81568 20.31081 305 ft 22 kts 302°
2026-05-06 17:51 44.81657 20.30886 305 ft 25 kts 303°
2026-05-06 17:52 44.81718 20.30741 307 ft 26 kts 301°
2026-05-06 17:52 44.81820 20.30514 309 ft 29 kts 302°
2026-05-06 17:52 44.81933 20.30259 307 ft 32 kts 302°
2026-05-06 17:52 44.82058 20.29982 307 ft 35 kts 302°
2026-05-06 17:53 44.82175 20.29720 308 ft 27 kts 302°
2026-05-06 17:53 44.82134 20.29559 310 ft 22 kts 208°
2026-05-06 17:53 44.81993 20.29433 307 ft 26 kts 212°
2026-05-06 17:53 44.81858 20.29315 307 ft 20 kts 212°
2026-05-06 17:54 44.81827 20.29264 307 ft 5 kts 300°
2026-05-06 17:54 44.81849 20.29218 307 ft 3 kts 297°
2026-05-06 17:54 44.81855 20.29204 307 ft 2 kts 302°
2026-05-06 17:54 44.81857 20.29200 309 ft 0 kts 301°